![]() |
EMODnet Physics ERDDAP
Easier access to scientific data |
log in|
Brought to you by EMODnet Physics |
| Dataset Title: | NDBC - Collection of dew point temperature (DEWT) TimeSeries - IN SITU MultiPointTimeSeriesObservation
|
| Institution: | NDBC (Dataset ID: TS_DEWT_NDBC) |
| Information: | Summary
| License
| FGDC
| ISO 19115
| Metadata
| Background
| Subset
| Data Access Form
| Make a graph
|
| Name | Last modified | Size | Description | |
|---|---|---|---|---|
| Parent Directory | - | - | ||
| 46219_TS_DEWT_012005.nc | 06-Dec-2024 02:13 | 449542 | ||
| 46219_TS_DEWT_012007.nc | 06-Dec-2024 02:14 | 449365 | ||
| 46219_TS_DEWT_012011.nc | 06-Dec-2024 02:16 | 449716 | ||
| 46219_TS_DEWT_012012.nc | 06-Dec-2024 02:18 | 449364 | ||
| 46219_TS_DEWT_012014.nc | 06-Dec-2024 02:21 | 449644 | ||
| 46219_TS_DEWT_012015.nc | 06-Dec-2024 02:23 | 449378 | ||
| 46219_TS_DEWT_012016.nc | 06-Dec-2024 02:25 | 449157 | ||
| 46219_TS_DEWT_012017.nc | 06-Dec-2024 02:27 | 448709 | ||
| 46219_TS_DEWT_012018.nc | 06-Dec-2024 02:29 | 448885 | ||
| 46219_TS_DEWT_012019.nc | 06-Dec-2024 02:31 | 448899 | ||
| 46219_TS_DEWT_012020.nc | 06-Dec-2024 02:33 | 448900 | ||
| 46219_TS_DEWT_012021.nc | 06-Dec-2024 02:36 | 449393 | ||
| 46219_TS_DEWT_012022.nc | 06-Dec-2024 02:38 | 448829 | ||
| 46219_TS_DEWT_012023.nc | 06-Dec-2024 02:40 | 449378 | ||
| 46219_TS_DEWT_022005.nc | 06-Dec-2024 02:13 | 448680 | ||
| 46219_TS_DEWT_022007.nc | 06-Dec-2024 02:15 | 2085386 | ||
| 46219_TS_DEWT_022011.nc | 06-Dec-2024 02:16 | 429679 | ||
| 46219_TS_DEWT_022012.nc | 06-Dec-2024 02:18 | 429684 | ||
| 46219_TS_DEWT_022014.nc | 06-Dec-2024 02:21 | 429671 | ||
| 46219_TS_DEWT_022015.nc | 06-Dec-2024 02:23 | 429692 | ||
| 46219_TS_DEWT_022016.nc | 06-Dec-2024 02:26 | 429693 | ||
| 46219_TS_DEWT_022017.nc | 06-Dec-2024 02:27 | 429700 | ||
| 46219_TS_DEWT_022018.nc | 06-Dec-2024 02:29 | 429687 | ||
| 46219_TS_DEWT_022019.nc | 06-Dec-2024 02:31 | 429688 | ||
| 46219_TS_DEWT_022020.nc | 06-Dec-2024 02:34 | 429543 | ||
| 46219_TS_DEWT_022021.nc | 06-Dec-2024 02:36 | 429687 | ||
| 46219_TS_DEWT_022022.nc | 06-Dec-2024 02:38 | 429685 | ||
| 46219_TS_DEWT_022023.nc | 06-Dec-2024 02:41 | 429696 | ||
| 46219_TS_DEWT_032005.nc | 06-Dec-2024 02:13 | 429686 | ||
| 46219_TS_DEWT_032011.nc | 06-Dec-2024 02:16 | 429687 | ||
| 46219_TS_DEWT_032012.nc | 06-Dec-2024 02:18 | 429691 | ||
| 46219_TS_DEWT_032014.nc | 06-Dec-2024 02:22 | 429697 | ||
| 46219_TS_DEWT_032015.nc | 06-Dec-2024 02:24 | 429687 | ||
| 46219_TS_DEWT_032016.nc | 06-Dec-2024 02:26 | 450096 | ||
| 46219_TS_DEWT_032017.nc | 06-Dec-2024 02:28 | 451142 | ||
| 46219_TS_DEWT_032018.nc | 06-Dec-2024 02:30 | 450069 | ||
| 46219_TS_DEWT_032019.nc | 06-Dec-2024 02:32 | 450652 | ||
| 46219_TS_DEWT_032020.nc | 06-Dec-2024 02:34 | 450281 | ||
| 46219_TS_DEWT_032021.nc | 06-Dec-2024 02:37 | 451635 | ||
| 46219_TS_DEWT_032022.nc | 06-Dec-2024 02:39 | 451353 | ||
| 46219_TS_DEWT_032023.nc | 06-Dec-2024 02:41 | 450958 | ||
| 46219_TS_DEWT_042005.nc | 06-Dec-2024 02:13 | 451887 | ||
| 46219_TS_DEWT_042007.nc | 06-Dec-2024 02:15 | 449971 | ||
| 46219_TS_DEWT_042011.nc | 06-Dec-2024 02:17 | 449860 | ||
| 46219_TS_DEWT_042012.nc | 06-Dec-2024 02:19 | 450437 | ||
| 46219_TS_DEWT_042013.nc | 06-Dec-2024 02:20 | 450270 | ||
| 46219_TS_DEWT_042014.nc | 06-Dec-2024 02:22 | 450090 | ||
| 46219_TS_DEWT_042015.nc | 06-Dec-2024 02:24 | 450315 | ||
| 46219_TS_DEWT_042016.nc | 06-Dec-2024 02:26 | 450314 | ||
| 46219_TS_DEWT_042017.nc | 06-Dec-2024 02:28 | 451233 | ||
| 46219_TS_DEWT_042018.nc | 06-Dec-2024 02:30 | 451187 | ||
| 46219_TS_DEWT_042019.nc | 06-Dec-2024 02:32 | 450082 | ||
| 46219_TS_DEWT_042020.nc | 06-Dec-2024 02:34 | 450533 | ||
| 46219_TS_DEWT_042021.nc | 06-Dec-2024 02:37 | 450581 | ||
| 46219_TS_DEWT_042022.nc | 06-Dec-2024 02:39 | 451463 | ||
| 46219_TS_DEWT_042023.nc | 06-Dec-2024 02:41 | 451843 | ||
| 46219_TS_DEWT_052005.nc | 06-Dec-2024 02:13 | 492449 | ||
| 46219_TS_DEWT_052006.nc | 06-Dec-2024 02:13 | 429354 | ||
| 46219_TS_DEWT_052007.nc | 06-Dec-2024 02:15 | 429347 | ||
| 46219_TS_DEWT_052011.nc | 06-Dec-2024 02:17 | 429351 | ||
| 46219_TS_DEWT_052012.nc | 06-Dec-2024 02:19 | 429369 | ||
| 46219_TS_DEWT_052013.nc | 06-Dec-2024 02:20 | 429363 | ||
| 46219_TS_DEWT_052014.nc | 06-Dec-2024 02:22 | 429363 | ||
| 46219_TS_DEWT_052015.nc | 06-Dec-2024 02:24 | 429370 | ||
| 46219_TS_DEWT_052016.nc | 06-Dec-2024 02:26 | 429368 | ||
| 46219_TS_DEWT_052017.nc | 06-Dec-2024 02:28 | 429213 | ||
| 46219_TS_DEWT_052018.nc | 06-Dec-2024 02:30 | 429349 | ||
| 46219_TS_DEWT_052019.nc | 06-Dec-2024 02:32 | 429365 | ||
| 46219_TS_DEWT_052020.nc | 06-Dec-2024 02:34 | 429340 | ||
| 46219_TS_DEWT_052021.nc | 06-Dec-2024 02:37 | 429371 | ||
| 46219_TS_DEWT_052022.nc | 06-Dec-2024 02:39 | 429364 | ||
| 46219_TS_DEWT_052023.nc | 06-Dec-2024 02:41 | 429359 | ||
| 46219_TS_DEWT_062006.nc | 06-Dec-2024 02:13 | 429364 | ||
| 46219_TS_DEWT_062011.nc | 06-Dec-2024 02:17 | 429368 | ||
| 46219_TS_DEWT_062012.nc | 06-Dec-2024 02:19 | 449940 | ||
| 46219_TS_DEWT_062013.nc | 06-Dec-2024 02:20 | 449550 | ||
| 46219_TS_DEWT_062014.nc | 06-Dec-2024 02:22 | 450110 | ||
| 46219_TS_DEWT_062015.nc | 06-Dec-2024 02:24 | 450013 | ||
| 46219_TS_DEWT_062016.nc | 06-Dec-2024 02:26 | 449765 | ||
| 46219_TS_DEWT_062017.nc | 06-Dec-2024 02:28 | 449271 | ||
| 46219_TS_DEWT_062018.nc | 06-Dec-2024 02:30 | 450625 | ||
| 46219_TS_DEWT_062019.nc | 06-Dec-2024 02:32 | 449930 | ||
| 46219_TS_DEWT_062020.nc | 06-Dec-2024 02:35 | 450121 | ||
| 46219_TS_DEWT_062021.nc | 06-Dec-2024 02:37 | 450365 | ||
| 46219_TS_DEWT_062022.nc | 06-Dec-2024 02:39 | 450078 | ||
| 46219_TS_DEWT_062023.nc | 06-Dec-2024 02:41 | 449442 | ||
| 46219_TS_DEWT_072006.nc | 06-Dec-2024 02:14 | 449231 | ||
| 46219_TS_DEWT_072011.nc | 06-Dec-2024 02:17 | 448746 | ||
| 46219_TS_DEWT_072013.nc | 06-Dec-2024 02:20 | 449249 | ||
| 46219_TS_DEWT_072014.nc | 06-Dec-2024 02:22 | 449454 | ||
| 46219_TS_DEWT_072015.nc | 06-Dec-2024 02:24 | 449543 | ||
| 46219_TS_DEWT_072016.nc | 06-Dec-2024 02:26 | 449087 | ||
| 46219_TS_DEWT_072017.nc | 06-Dec-2024 02:28 | 450115 | ||
| 46219_TS_DEWT_072018.nc | 06-Dec-2024 02:30 | 449376 | ||
| 46219_TS_DEWT_072019.nc | 06-Dec-2024 02:32 | 450184 | ||
| 46219_TS_DEWT_072020.nc | 06-Dec-2024 02:35 | 450145 | ||
| 46219_TS_DEWT_072021.nc | 06-Dec-2024 02:37 | 449368 | ||
| 46219_TS_DEWT_072022.nc | 06-Dec-2024 02:39 | 4389051 | ||
| 46219_TS_DEWT_072023.nc | 06-Dec-2024 02:42 | 429679 | ||
| 46219_TS_DEWT_082006.nc | 06-Dec-2024 02:14 | 429681 | ||
| 46219_TS_DEWT_082007.nc | 06-Dec-2024 02:15 | 429218 | ||
| 46219_TS_DEWT_082011.nc | 06-Dec-2024 02:17 | 429688 | ||
| 46219_TS_DEWT_082013.nc | 06-Dec-2024 02:20 | 429697 | ||
| 46219_TS_DEWT_082014.nc | 06-Dec-2024 02:22 | 429669 | ||
| 46219_TS_DEWT_082015.nc | 06-Dec-2024 02:25 | 429628 | ||
| 46219_TS_DEWT_082016.nc | 06-Dec-2024 02:27 | 429334 | ||
| 46219_TS_DEWT_082017.nc | 06-Dec-2024 02:28 | 429689 | ||
| 46219_TS_DEWT_082018.nc | 06-Dec-2024 02:30 | 429688 | ||
| 46219_TS_DEWT_082019.nc | 06-Dec-2024 02:32 | 429693 | ||
| 46219_TS_DEWT_082020.nc | 06-Dec-2024 02:35 | 429693 | ||
| 46219_TS_DEWT_082021.nc | 06-Dec-2024 02:37 | 429685 | ||
| 46219_TS_DEWT_082022.nc | 06-Dec-2024 02:40 | 429694 | ||
| 46219_TS_DEWT_082023.nc | 06-Dec-2024 02:42 | 429697 | ||
| 46219_TS_DEWT_092004.nc | 06-Dec-2024 02:12 | 429686 | ||
| 46219_TS_DEWT_092006.nc | 06-Dec-2024 02:14 | 429692 | ||
| 46219_TS_DEWT_092007.nc | 06-Dec-2024 02:15 | 450312 | ||
| 46219_TS_DEWT_092010.nc | 06-Dec-2024 02:16 | 450880 | ||
| 46219_TS_DEWT_092011.nc | 06-Dec-2024 02:18 | 450920 | ||
| 46219_TS_DEWT_092012.nc | 06-Dec-2024 02:19 | 450774 | ||
| 46219_TS_DEWT_092013.nc | 06-Dec-2024 02:21 | 451534 | ||
| 46219_TS_DEWT_092014.nc | 06-Dec-2024 02:22 | 451394 | ||
| 46219_TS_DEWT_092015.nc | 06-Dec-2024 02:25 | 451217 | ||
| 46219_TS_DEWT_092016.nc | 06-Dec-2024 02:27 | 450815 | ||
| 46219_TS_DEWT_092017.nc | 06-Dec-2024 02:29 | 451609 | ||
| 46219_TS_DEWT_092018.nc | 06-Dec-2024 02:31 | 451216 | ||
| 46219_TS_DEWT_092019.nc | 06-Dec-2024 02:32 | 451996 | ||
| 46219_TS_DEWT_092020.nc | 06-Dec-2024 02:36 | 449950 | ||
| 46219_TS_DEWT_092021.nc | 06-Dec-2024 02:38 | 450412 | ||
| 46219_TS_DEWT_092022.nc | 06-Dec-2024 02:40 | 449633 | ||
| 46219_TS_DEWT_092023.nc | 06-Dec-2024 02:42 | 450326 | ||
| 46219_TS_DEWT_102004.nc | 06-Dec-2024 02:12 | 451077 | ||
| 46219_TS_DEWT_102006.nc | 06-Dec-2024 02:14 | 451458 | ||
| 46219_TS_DEWT_102007.nc | 06-Dec-2024 02:15 | 450781 | ||
| 46219_TS_DEWT_102010.nc | 06-Dec-2024 02:16 | 450252 | ||
| 46219_TS_DEWT_102011.nc | 06-Dec-2024 02:18 | 450297 | ||
| 46219_TS_DEWT_102012.nc | 06-Dec-2024 02:19 | 450174 | ||
| 46219_TS_DEWT_102013.nc | 06-Dec-2024 02:21 | 449952 | ||
| 46219_TS_DEWT_102014.nc | 06-Dec-2024 02:23 | 451406 | ||
| 46219_TS_DEWT_102015.nc | 06-Dec-2024 02:25 | 4260043 | ||
| 46219_TS_DEWT_102016.nc | 06-Dec-2024 02:27 | 1625692 | ||
| 46219_TS_DEWT_102017.nc | 06-Dec-2024 02:29 | 1475677 | ||
| 46219_TS_DEWT_102018.nc | 06-Dec-2024 02:31 | 1477256 | ||
| 46219_TS_DEWT_102019.nc | 06-Dec-2024 02:33 | 1626599 | ||
| 46219_TS_DEWT_102020.nc | 06-Dec-2024 02:36 | 1473081 | ||
| 46219_TS_DEWT_102021.nc | 06-Dec-2024 02:38 | 1469114 | ||
| 46219_TS_DEWT_102022.nc | 06-Dec-2024 02:40 | 1469853 | ||
| 46219_TS_DEWT_102023.nc | 06-Dec-2024 02:42 | 1464486 | ||
| 46219_TS_DEWT_112004.nc | 06-Dec-2024 02:12 | 1470262 | ||
| 46219_TS_DEWT_112006.nc | 06-Dec-2024 02:14 | 1150955 | ||
| 46219_TS_DEWT_112007.nc | 06-Dec-2024 02:15 | 1463727 | ||
| 46219_TS_DEWT_112010.nc | 06-Dec-2024 02:16 | 1624236 | ||
| 46219_TS_DEWT_112011.nc | 06-Dec-2024 02:18 | 1468957 | ||
| 46219_TS_DEWT_112012.nc | 06-Dec-2024 02:19 | 1462869 | ||
| 46219_TS_DEWT_112013.nc | 06-Dec-2024 02:21 | 1462739 | ||
| 46219_TS_DEWT_112014.nc | 06-Dec-2024 02:23 | 1472521 | ||
| 46219_TS_DEWT_112015.nc | 06-Dec-2024 02:25 | 1475096 | ||
| 46219_TS_DEWT_112016.nc | 06-Dec-2024 02:27 | 1465636 | ||
| 46219_TS_DEWT_112017.nc | 06-Dec-2024 02:29 | 1470973 | ||
| 46219_TS_DEWT_112018.nc | 06-Dec-2024 02:31 | 1475606 | ||
| 46219_TS_DEWT_112019.nc | 06-Dec-2024 02:33 | 1460271 | ||
| 46219_TS_DEWT_112020.nc | 06-Dec-2024 02:36 | 1464518 | ||
| 46219_TS_DEWT_112021.nc | 06-Dec-2024 02:38 | 1473037 | ||
| 46219_TS_DEWT_112022.nc | 06-Dec-2024 02:40 | 1472652 | ||
| 46219_TS_DEWT_112023.nc | 06-Dec-2024 02:42 | 1472923 | ||
| 46219_TS_DEWT_122004.nc | 06-Dec-2024 02:12 | 1461397 | ||
| 46219_TS_DEWT_122006.nc | 06-Dec-2024 02:14 | 1476900 | ||
| 46219_TS_DEWT_122010.nc | 06-Dec-2024 02:16 | 1473114 | ||
| 46219_TS_DEWT_122011.nc | 06-Dec-2024 02:18 | 1476511 | ||
| 46219_TS_DEWT_122012.nc | 06-Dec-2024 02:20 | 1459424 | ||
| 46219_TS_DEWT_122013.nc | 06-Dec-2024 02:21 | 1477134 | ||
| 46219_TS_DEWT_122014.nc | 06-Dec-2024 02:23 | 1472442 | ||
| 46219_TS_DEWT_122015.nc | 06-Dec-2024 02:25 | 1470449 | ||
| 46219_TS_DEWT_122016.nc | 06-Dec-2024 02:27 | 1462035 | ||
| 46219_TS_DEWT_122017.nc | 06-Dec-2024 02:29 | 1473326 | ||
| 46219_TS_DEWT_122018.nc | 06-Dec-2024 02:31 | 1157043 | ||
| 46219_TS_DEWT_122019.nc | 06-Dec-2024 02:33 | 1470734 | ||
| 46219_TS_DEWT_122020.nc | 06-Dec-2024 02:36 | 1154576 | ||
| 46219_TS_DEWT_122021.nc | 06-Dec-2024 02:38 | 1476807 | ||
| 46219_TS_DEWT_122022.nc | 06-Dec-2024 02:40 | 1145040 | ||
| 46219_TS_DEWT_122023.nc | 06-Dec-2024 02:43 | 1474150 | ||